Date,TemperatureHighF,TemperatureAvgF,TemperatureLowF,DewpointHighF,DewpointAvgF,DewpointLowF,HumidityHigh,HumidityAvg,HumidityLow,PressureMaxIn,PressureMinIn,WindSpeedMaxMPH,WindSpeedAvgMPH,GustSpeedMaxMPH,PrecipitationSumIn
2013-3-1,61.0,44.6,30.0,26.0,19.7,14.0,56,38,25,0.00,40.00,29,13,45,0.00
2013-3-2,63.0,47.5,37.0,27.0,24.0,20.0,53,41,25,0.00,40.00,23,11,34,0.00
2013-3-3,55.0,38.7,29.0,30.0,24.3,7.0,90,57,37,0.00,40.00,34,8,51,0.00
2013-3-4,31.0,24.9,15.0,10.0,6.0,3.0,61,45,32,0.00,40.00,34,15,52,0.00
2013-3-5,32.0,19.6,9.0,18.0,9.4,3.0,83,66,43,0.00,40.00,8,4,11,0.00
2013-3-6,36.0,26.5,16.0,23.0,17.5,12.0,86,70,48,0.00,40.00,9,4,12,0.00
2013-3-7,57.0,40.9,29.0,27.0,18.9,5.0,80,48,13,0.00,40.00,14,7,26,0.00
2013-3-8,42.0,34.2,30.0,27.0,23.9,21.0,74,66,47,0.00,40.00,10,5,17,0.00
2013-3-9,48.0,40.3,26.0,11.0,8.7,7.0,54,28,20,0.00,40.00,24,12,35,0.00
2013-3-10,60.0,39.8,21.0,18.0,13.1,8.0,78,42,15,0.00,40.00,18,8,29,0.00
2013-3-11,49.0,40.1,32.0,21.0,16.1,8.0,47,38,19,0.00,40.00,23,12,34,0.00
2013-3-12,50.0,35.5,24.0,24.0,16.8,11.0,84,52,23,0.00,40.00,14,5,19,0.00
2013-3-13,69.0,50.6,32.0,25.0,20.5,18.0,60,34,17,0.00,40.00,26,13,40,0.00
2013-3-14,69.0,53.6,37.0,30.0,25.1,20.0,62,36,19,0.00,40.00,24,7,34,0.00
2013-3-15,65.0,52.9,38.0,29.0,23.7,20.0,57,34,18,0.00,40.00,29,14,42,0.00
2013-3-16,51.0,37.4,27.0,26.0,23.3,21.0,85,60,32,0.00,40.00,16,7,21,0.00
2013-3-17,42.0,34.0,25.0,29.0,15.7,3.0,84,52,19,0.00,40.00,33,13,52,0.00
2013-3-18,44.0,30.1,15.0,14.0,7.6,3.0,72,42,18,0.00,40.00,26,9,47,0.00
2013-3-19,39.0,30.8,25.0,22.0,15.4,11.0,87,55,34,0.00,40.00,17,7,22,0.00
2013-3-20,59.0,36.5,18.0,17.0,14.6,13.0,81,47,19,0.00,40.00,13,5,20,0.00
2013-3-21,48.0,40.7,34.0,32.0,15.0,2.0,82,39,18,0.00,40.00,21,10,34,0.00
2013-3-22,36.0,28.1,21.0,26.0,13.3,3.0,88,56,26,0.00,40.00,16,9,24,0.00
2013-3-23,34.0,25.2,17.0,14.0,5.2,-3.0,74,46,20,0.00,40.00,18,8,23,0.00
2013-3-24,34.0,23.3,9.0,11.0,5.9,1.0,83,51,24,0.00,40.00,14,5,24,0.00
2013-3-25,49.0,29.7,10.0,11.0,5.9,1.0,83,44,16,0.00,40.00,16,4,20,0.00
2013-3-26,54.0,39.2,23.0,16.0,11.6,2.0,56,34,20,0.00,40.00,15,5,18,0.00
2013-3-27,64.0,44.0,23.0,22.0,16.1,9.0,68,36,17,0.00,40.00,12,5,17,0.00
2013-3-28,67.0,50.1,32.0,27.0,22.5,17.0,64,37,20,0.00,40.00,14,6,17,0.00
2013-3-29,66.0,49.9,40.0,39.0,27.8,20.0,74,44,27,0.00,40.00,17,9,33,0.00
2013-3-30,60.0,50.8,42.0,39.0,24.8,-99.9,77,41,20,0.00,40.00,23,10,39,0.00
2013-3-31,59.0,45.3,32.0,27.0,21.1,14.0,63,40,25,0.00,40.00,24,11,34,0.00